DLH1785 EDDF-ELLX

Flight info

Callsign DLH1785
Flight time 0h 27m
Altitude 16000
Route SOBRA2L/18 SOBRA Y180 BITBU Z110 BETEX
Aircraft A319/M-SDE3FGHIRWY/LB1

Departure

Time 2026-05-04 13:38
Airport Frankfurt Main Airport (EDDF)

Arrival

Time 2026-05-04 14:05
Airport Luxembourg-Findel International Airport (ELLX)
Time Latitude Longitude Altitude Speed Heading
2026-05-04 13:25 50.04063 8.55619 338 ft 0 kts 160°
2026-05-04 13:35 50.03993 8.55636 352 ft 0 kts 216°
2026-05-04 13:35 50.04090 8.55375 354 ft 15 kts 298°
2026-05-04 13:35 50.04036 8.55097 357 ft 40 kts 250°
2026-05-04 13:36 50.03947 8.54718 353 ft 36 kts 249°
2026-05-04 13:36 50.03839 8.54289 347 ft 42 kts 246°
2026-05-04 13:36 50.03700 8.53809 337 ft 47 kts 250°
2026-05-04 13:36 50.03571 8.53272 335 ft 54 kts 249°
2026-05-04 13:37 50.03460 8.52815 355 ft 33 kts 250°
2026-05-04 13:37 50.03439 8.52738 353 ft 0 kts 247°
2026-05-04 13:38 50.03255 8.52557 349 ft 43 kts 172°
2026-05-04 13:38 50.02714 8.52598 346 ft 111 kts 180°
2026-05-04 13:38 50.01777 8.52596 533 ft 147 kts 181°
2026-05-04 13:38 50.00757 8.52659 1109 ft 150 kts 178°
2026-05-04 13:39 49.99701 8.52747 1735 ft 158 kts 182°
2026-05-04 13:39 49.98513 8.52802 2189 ft 183 kts 182°
2026-05-04 13:39 49.97154 8.52887 2384 ft 206 kts 180°
2026-05-04 13:39 49.95732 8.52993 2949 ft 203 kts 181°
2026-05-04 13:40 49.94272 8.53074 3286 ft 219 kts 181°
2026-05-04 13:40 49.92640 8.53162 3348 ft 252 kts 180°
2026-05-04 13:40 49.90813 8.53276 3784 ft 268 kts 180°
2026-05-04 13:40 49.88932 8.53392 4375 ft 280 kts 181°
2026-05-04 13:41 49.87578 8.53410 4448 ft 295 kts 188°
2026-05-04 13:41 49.85588 8.52531 4615 ft 313 kts 203°
2026-05-04 13:41 49.83480 8.51280 4674 ft 333 kts 202°
2026-05-04 13:42 49.79097 8.48221 4823 ft 353 kts 222°
2026-05-04 13:42 49.77496 8.45395 5305 ft 348 kts 240°
2026-05-04 13:42 49.76600 8.41942 5632 ft 349 kts 261°
2026-05-04 13:42 49.76603 8.38181 6110 ft 356 kts 279°
2026-05-04 13:43 49.77150 8.34485 7357 ft 352 kts 283°
2026-05-04 13:43 49.77753 8.30758 8173 ft 361 kts 283°
2026-05-04 13:43 49.78368 8.26966 9031 ft 365 kts 283°
2026-05-04 13:43 49.78978 8.23124 9936 ft 369 kts 283°
2026-05-04 13:44 49.79595 8.19227 10713 ft 375 kts 283°
2026-05-04 13:44 49.80214 8.15307 11503 ft 379 kts 283°
2026-05-04 13:44 49.80846 8.11306 12222 ft 383 kts 283°
2026-05-04 13:44 49.81480 8.07274 12907 ft 389 kts 283°
2026-05-04 13:45 49.82129 8.03137 13013 ft 396 kts 283°
2026-05-04 13:45 49.82774 7.99040 12997 ft 392 kts 283°
2026-05-04 13:45 49.83415 7.94918 13003 ft 391 kts 283°
2026-05-04 13:45 49.84045 7.90866 13005 ft 392 kts 283°
2026-05-04 13:46 49.84686 7.86747 13014 ft 401 kts 283°
2026-05-04 13:46 49.85361 7.82402 13008 ft 430 kts 283°
2026-05-04 13:46 49.86065 7.77842 13004 ft 421 kts 283°
2026-05-04 13:46 49.86729 7.73527 13012 ft 409 kts 282°
2026-05-04 13:47 49.87383 7.69292 12989 ft 395 kts 283°
2026-05-04 13:47 49.88031 7.65134 13005 ft 398 kts 283°
2026-05-04 13:47 49.88669 7.61011 12994 ft 392 kts 283°
2026-05-04 13:47 49.89309 7.56844 13366 ft 397 kts 283°
2026-05-04 13:48 49.89947 7.52715 14368 ft 394 kts 283°
2026-05-04 13:48 49.90590 7.48529 14965 ft 401 kts 283°
2026-05-04 13:48 49.91235 7.44289 15630 ft 405 kts 282°
2026-05-04 13:48 49.91892 7.39991 16043 ft 416 kts 283°
2026-05-04 13:49 49.92551 7.35677 15994 ft 409 kts 283°
2026-05-04 13:49 49.93203 7.31377 16009 ft 406 kts 283°
2026-05-04 13:49 49.93834 7.27201 15695 ft 399 kts 283°
2026-05-04 13:49 49.94479 7.22935 15321 ft 401 kts 283°
2026-05-04 13:50 49.95113 7.18738 14952 ft 403 kts 283°
2026-05-04 13:50 49.95744 7.14509 14589 ft 399 kts 282°
2026-05-04 13:50 49.96367 7.10322 14220 ft 399 kts 283°
2026-05-04 13:50 49.97000 7.06143 13837 ft 395 kts 283°
2026-05-04 13:51 49.97618 7.01988 13467 ft 394 kts 282°
2026-05-04 13:51 49.98221 6.97858 13083 ft 391 kts 280°
2026-05-04 13:51 49.98223 6.93822 12721 ft 389 kts 259°
2026-05-04 13:51 49.97390 6.89841 12350 ft 389 kts 248°
2026-05-04 13:52 49.95022 6.82346 11595 ft 384 kts 243°
2026-05-04 13:52 49.93775 6.78688 11220 ft 383 kts 242°
2026-05-04 13:52 49.92521 6.75058 10847 ft 379 kts 242°
2026-05-04 13:53 49.91270 6.71473 10441 ft 371 kts 242°
2026-05-04 13:53 49.90049 6.67970 10074 ft 371 kts 243°
2026-05-04 13:53 49.88843 6.64501 9699 ft 363 kts 243°
2026-05-04 13:54 49.86481 6.57769 7925 ft 348 kts 242°
2026-05-04 13:54 49.85309 6.54456 6575 ft 348 kts 242°
2026-05-04 13:54 49.83052 6.48069 4325 ft 338 kts 243°
2026-05-04 13:55 49.81926 6.44891 3959 ft 325 kts 242°
2026-05-04 13:55 49.79806 6.38844 3984 ft 314 kts 242°
2026-05-04 13:55 49.78763 6.35892 3987 ft 308 kts 242°
2026-05-04 13:56 49.77742 6.33009 4000 ft 296 kts 242°
2026-05-04 13:56 49.76778 6.30316 3993 ft 277 kts 242°
2026-05-04 13:56 49.75032 6.25427 4006 ft 243 kts 243°
2026-05-04 13:57 49.74227 6.23213 3970 ft 228 kts 242°
2026-05-04 13:57 49.73464 6.21084 4145 ft 229 kts 243°
2026-05-04 13:58 49.71178 6.14771 3972 ft 221 kts 242°
2026-05-04 13:58 49.69649 6.10597 3989 ft 227 kts 243°
2026-05-04 13:58 49.68888 6.08494 3980 ft 222 kts 241°
2026-05-04 13:59 49.68137 6.06422 4000 ft 227 kts 242°
2026-05-04 13:59 49.67380 6.04319 3994 ft 225 kts 243°
2026-05-04 13:59 49.65866 6.00127 3985 ft 224 kts 242°
2026-05-04 14:00 49.65103 5.98027 3989 ft 224 kts 242°
2026-05-04 14:00 49.62435 5.96108 3960 ft 231 kts 171°
2026-05-04 14:00 49.60930 5.96973 3529 ft 230 kts 162°
2026-05-04 14:01 49.59448 5.97265 3525 ft 203 kts 189°
2026-05-04 14:01 49.58121 5.96959 3513 ft 186 kts 192°
2026-05-04 14:01 49.55955 5.98654 2875 ft 195 kts 106°
2026-05-04 14:02 49.55860 6.00648 2715 ft 179 kts 90°
2026-05-04 14:02 49.55910 6.02528 2547 ft 173 kts 84°
2026-05-04 14:02 49.56123 6.04331 2666 ft 175 kts 73°
2026-05-04 14:02 49.56566 6.05929 2745 ft 152 kts 55°
2026-05-04 14:03 49.57224 6.07104 2509 ft 146 kts 37°
2026-05-04 14:03 49.57846 6.08273 2455 ft 139 kts 58°
2026-05-04 14:03 49.58348 6.09662 2476 ft 153 kts 57°
2026-05-04 14:03 49.58876 6.11032 2496 ft 156 kts 57°
2026-05-04 14:04 49.59930 6.13763 2072 ft 157 kts 56°
2026-05-04 14:04 49.60460 6.15218 1789 ft 156 kts 59°
2026-05-04 14:04 49.60982 6.16666 1479 ft 150 kts 58°
2026-05-04 14:05 49.62005 6.19459 1177 ft 145 kts 62°
2026-05-04 14:05 49.62495 6.20755 1191 ft 112 kts 64°
2026-05-04 14:05 49.62730 6.21390 1198 ft 43 kts 59°
2026-05-04 14:06 49.62929 6.21922 1201 ft 67 kts 60°
2026-05-04 14:06 49.63048 6.22145 1206 ft 7 kts 316°
2026-05-04 14:06 49.63114 6.22078 1209 ft 9 kts 329°
2026-05-04 14:06 49.63155 6.22041 1211 ft 5 kts 330°
2026-05-04 14:07 49.63180 6.21984 1212 ft 15 kts 265°
2026-05-04 14:07 49.63132 6.21860 1209 ft 31 kts 253°
2026-05-04 14:07 49.63109 6.21627 1209 ft 17 kts 327°
2026-05-04 14:07 49.63230 6.21527 1217 ft 18 kts 328°
2026-05-04 14:08 49.63280 6.21482 1220 ft 2 kts 340°
2026-05-04 14:08 49.63295 6.21536 1220 ft 0 kts 340°
2026-05-04 14:08 49.63293 6.21522 1220 ft 0 kts 338°